Dewpoint
59 57 56 54 51 49 48 48 48 47 47 46 43 42 42 41 41 43 45 44 43 41
51 58 55 54 51 50 49 48 47 47 44 43 41 40 40 39 39 41 41 44 43 42
49 57 55 53 50 49 48 47 46 44 41 42 40 39 41 38 39 39 40 40 40 39
48 54 54 50 49 48 47 46 43 43 40 40 40 38 37 37 38 36 38 39 38 38
49 52 49 49 47 46 43 43 41 40 39 37 38 36 36 35 36 35 35 37 38 37
45 45 46 45 45 42 42 40 39 39 38 38 37 37 34 35 35 36 37 37 38 37
42 42 42 43 42 41 41 40 38 38 37 36 36 35 34 35 35 36 36 36 37 37
41 41 41 41 41 40 40 40 38 38 37 36 36 35 35 35 35 33 34 36 35 36
40 39 39 40 40 39 39 38 38 37 36 36 36 36 35 34 33 31 32 32 32 33
36 38 37 39 38 36 35 36 36 35 36 35 36 35 34 33 33 33 33 31 30 30
35 35 34 33 32 32 32 32 33 33 33 33 33 34 32 32 35 35 35 34 33 31
35 33 32 32 32 32 32 32 32 32 32 32 32 33 32 32 34 33 33 33 34 34
36 34 33 33 32 32 32 32 32 32 32 33 32 32 32 31 31 30 31 32 33 31
36 35 34 33 33 32 32 32 32 32 33 33 33 32 31 31 31 31 30 30 30 31
Lifted_Index
1 0 -0 -0 0 0 0 -0 -0 -0 1 4 7 9 11 12 14 15 15 14 12 11
1 -0 -1 -1 -0 -0 0 0 0 0 1 4 7 9 11 12 14 14 14 13 11 11
1 -0 -2 -2 -1 -0 0 1 2 2 3 5 8 10 11 12 14 14 13 12 11 11
2 0 -1 -2 -1 -1 0 2 3 4 4 6 9 11 12 13 14 13 12 13 14 14
3 2 0 -1 -1 -0 1 2 4 5 5 7 10 12 13 14 14 12 13 15 16 16
5 4 3 1 0 1 2 3 5 6 6 8 10 12 14 14 14 13 14 15 15 15
6 6 5 4 2 3 3 5 6 7 8 9 11 12 14 14 13 13 14 14 14 14
6 8 8 6 5 5 6 7 8 9 9 10 11 12 13 13 13 14 14 13 13 13
7 8 9 9 8 8 9 9 10 10 11 11 12 13 14 13 14 14 13 12 13 13
6 8 10 11 10 10 11 11 12 12 12 13 13 14 14 14 14 14 13 13 14 15
6 8 10 11 11 12 12 12 12 13 13 13 14 14 14 14 14 14 14 14 16 16
6 7 9 10 11 12 12 12 13 13 13 13 14 14 14 15 15 14 14 15 17 17
6 6 8 9 10 11 11 12 12 13 13 13 13 13 14 15 15 14 14 16 18 18
6 6 7 8 9 10 10 11 11 12 13 13 13 13 15 16 15 14 15 17 18 18